This demonstration page uses our WeatherBlox Daily Observations layout. Learn more.

Left ArrowRight Arrow

53.62937, 11.41316

Hourly Observations for July 19, 2016

Temp ( °F °C ) Dew Point ( °F °C ) Humidity (%) Winds ( mph kmh ) Pressure ( in mb ) Visibility ( mi km ) Precip ( " mm )
6:20 am 06:20 Cloudy 59 15 54 12 82 82 W 5 7 30.12 1020 30 48 N/A
6:50 am 06:50 Cloudy 59 15 54 12 82 82 W 6 9 30.15 1021 30 48 N/A
7:20 am 07:20 Cloudy 61 16 55 13 83 83 W 6 9 30.15 1021 30 48 N/A
7:50 am 07:50 Cloudy 61 16 55 13 83 83 W 7 11 30.15 1021 30 48 N/A
8:50 am 08:50 Cloudy 61 16 55 13 83 83 W 7 11 30.15 1021 30 48 N/A
9:20 am 09:20 Cloudy 63 17 57 14 83 83 W 7 11 30.15 1021 30 48 N/A
9:50 am 09:50 Cloudy 63 17 57 14 83 83 W 7 11 30.15 1021 30 48 N/A
10:20 am 10:20 Mostly Cloudy 64 18 59 15 83 83 W 8 13 30.15 1021 30 48 N/A
10:50 am 10:50 Mostly Cloudy 66 19 59 15 78 78 WSW 8 13 30.15 1021 30 48 N/A
11:20 am 11:20 Mostly Cloudy 68 20 57 14 69 69 WNW 8 13 30.18 1022 30 48 N/A
11:50 am 11:50 Mostly Cloudy 68 20 57 14 69 69 W 10 17 30.18 1022 30 48 N/A
12:20 pm 12:20 Mostly Cloudy 70 21 57 14 64 64 W 7 11 30.18 1022 30 48 N/A
12:50 pm 12:50 Mostly Cloudy 70 21 59 15 69 69 W 9 15 30.18 1022 30 48 N/A
1:20 pm 13:20 Mostly Cloudy 72 22 61 16 69 69 W 13 20 30.18 1022 30 48 N/A
1:50 pm 13:50 Mostly Cloudy 70 21 61 16 73 73 W 10 17 30.18 1022 30 48 N/A
2:20 pm 14:20 Mostly Cloudy 70 21 61 16 73 73 W 10 17 30.18 1022 30 48 N/A
2:50 pm 14:50 Mostly Cloudy 72 22 61 16 69 69 W 10 17 30.18 1022 30 48 N/A
3:20 pm 15:20 Mostly Cloudy 72 22 61 16 69 69 W 9 15 30.15 1021 30 48 N/A
3:50 pm 15:50 Mostly Cloudy 73 23 61 16 65 65 WNW 7 11 30.15 1021 30 48 N/A
4:20 pm 16:20 Mostly Cloudy 73 23 61 16 65 65 NNW 7 11 30.15 1021 30 48 N/A
4:50 pm 16:50 Mostly Cloudy 73 23 61 16 65 65 WNW 8 13 30.15 1021 30 48 N/A
5:20 pm 17:20 Mostly Cloudy 75 24 61 16 61 61 WNW 8 13 30.15 1021 30 48 N/A
5:50 pm 17:50 Partly Cloudy 75 24 59 15 57 57 W 8 13 30.15 1021 30 48 N/A
6:20 pm 18:20 Partly Cloudy 77 25 59 15 54 54 WNW 5 7 30.12 1020 30 48 N/A
6:50 pm 18:50 Partly Cloudy 75 24 61 16 61 61 N 5 7 30.12 1020 30 48 N/A

Powered by AerisWeather